Temperature
15 15 15 15 15 15 15 15 15 15 15 14 14 14 14 14 14 14 14 14 14 14 15 15 15 15 15 15 15 15 15 15 15 15 15 15 15 14 15 15 15 15 15
15 15 15 15 15 15 15 14 14 14 14 14 14 14 14 14 14 14 14 14 14 14 14 14 15 15 15 15 15 15 15 14 14 14 14 14 14 14 14 14 14 14 14
15 15 15 15 14 14 14 14 14 14 14 14 14 14 14 14 14 14 14 14 14 14 14 14 14 14 14 14 14 14 14 14 14 14 14 14 14 14 14 14 14 14 14
14 14 14 14 14 14 14 14 14 14 14 14 14 14 14 14 14 14 14 14 14 14 14 14 14 14 14 14 14 14 13 13 13 14 14 14 14 14 14 14 14 14 14
14 14 14 14 14 14 14 14 14 14 14 14 14 14 14 14 13 13 13 13 13 13 14 14 14 14 14 14 13 13 13 13 13 13 13 13 13 13 13 13 13 13 13
13 13 14 14 14 14 14 14 14 14 14 14 14 14 13 13 13 13 13 13 13 13 14 14 14 13 13 13 13 13 13 13 13 13 13 13 13 13 13 13 13 13 13
13 13 13 13 13 13 13 13 13 13 13 13 13 13 13 13 13 13 13 13 13 13 13 13 13 13 13 13 13 13 12 13 13 13 13 13 13 13 13 13 13 13 13
12 13 13 13 13 13 13 13 13 13 13 13 13 13 13 13 13 13 13 13 12 13 13 13 13 13 13 12 12 12 12 12 12 12 12 12 12 12 12 12 12 12 12
12 12 12 12 12 13 13 13 13 13 13 13 13 13 13 13 12 12 12 12 12 12 12 12 12 12 12 12 12 12 12 12 12 12 12 12 12 12 12 12 12 12 12
12 12 12 12 12 12 12 12 12 12 12 12 12 12 12 12 12 12 12 12 12 12 12 12 12 12 12 12 12 11 11 11 11 11 11 11 11 11 12 12 11 11 11
12 11 11 12 12 12 12 12 12 12 12 12 12 12 12 12 12 12 12 12 12 12 12 12 12 11 11 11 11 11 11 11 11 11 11 11 11 11 11 11 11 11 11
11 11 11 11 11 11 11 11 11 11 11 11 11 11 11 11 11 11 11 11 11 11 11 11 11 11 11 11 10 10 10 10 10 10 10 10 10 10 10 10 11 11 11
11 11 11 11 11 11 11 11 11 11 11 11 11 11 11 11 11 11 11 11 11 11 11 11 11 10 10 10 10 10 10 10 10 10 10 10 10 10 10 10 10 10 10
10 10 10 11 11 11 11 11 11 11 11 11 11 10 11 11 11 11 11 10 10 10 10 10 10 10 10 10 10 10 10 10 10 10 10 9 9 9 9 9 10 10 10
10 10 10 10 10 10 11 11 11 11 11 10 10 10 10 10 10 10 10 10 10 10 10 10 9 9 9 9 9 9 9 9 9 9 9 9 9 9 9 9 9 9 9
9 9 9 10 10 10 10 10 10 10 10 10 10 10 10 10 10 10 10 10 9 9 9 9 9 9 9 9 9 9 9 9 9 9 9 9 9 9 9 9 9 8 8
9 9 9 9 9 10 10 10 10 10 10 10 10 10 10 10 9 9 9 9 9 9 9 9 8 8 8 8 8 8 8 8 8 8 8 8 8 8 8 8 8 8 8
8 8 9 9 9 9 9 9 9 9 9 9 9 9 9 9 9 9 9 9 9 9 9 8 8 8 8 8 8 8 8 8 8 8 8 8 8 8 8 8 8 8 8
8 8 8 8 8 8 8 9 9 9 9 9 9 9 9 9 9 8 8 8 8 8 8 8 8 8 8 8 7 7 7 8 8 8 8 8 8 8 8 8 8 8 7
7 7 7 8 8 8 8 8 8 8 8 8 8 8 8 8 8 8 8 8 8 8 8 7 7 7 7 7 7 7 7 7 7 7 7 7 7 7 7 7 7 7 7
7 7 7 7 7 7 7 7 7 8 8 8 8 8 8 8 8 8 7 7 7 7 7 7 7 7 7 7 6 6 6 6 6 7 7 7 7 7 7 7 7 7 7
6 6 6 6 7 7 7 7 7 7 7 7 7 7 7 7 7 7 7 7 7 7 7 6 6 6 6 6 6 5 5 5 6 6 6 6 6 6 6 6 6 6 7
6 6 6 6 6 6 6 6 6 6 6 6 6 6 6 7 7 6 6 6 6 6 6 6 6 6 6 6 6 5 5 5 5 5 5 6 6 6 6 6 6 6 6
5 5 5 5 5 5 6 6 6 6 6 6 6 6 6 6 6 6 6 6 6 6 6 5 5 5 5 5 5 5 5 5 5 4 5 5 5 5 5 5 5 5 5
5 5 5 5 5 5 5 5 5 5 5 5 5 5 6 6 5 5 5 5 5 5 5 5 5 5 5 5 5 5 5 5 4 4 4 4 4 5 5 5 5 5 5
4 4 4 4 4 4 4 4 4 4 4 4 5 5 5 5 5 5 5 5 5 5 4 4 4 4 4 4 4 5 5 4 4 4 4 4 4 4 4 4 4 4 4
Wind_Speed
6 10 11 10 10 11 12 11 11 11 12 12 12 13 13 14 14 15 15 15 16 17 17 17 18 18 19 19 20 20 21 21 21 21 21 20 20 21 21 20 20 19 21
8 12 11 10 11 11 12 12 12 12 12 12 12 13 13 14 14 15 15 15 16 16 17 17 17 18 18 18 19 19 19 20 20 20 20 20 20 20 21 21 20 19 21
10 12 11 10 11 12 12 12 12 12 13 12 12 13 13 14 14 14 15 16 16 16 17 17 17 18 18 18 18 17 17 17 18 18 18 17 18 20 21 21 21 21 21
9 11 11 11 11 12 12 12 12 13 12 12 12 13 14 14 14 14 15 16 16 16 17 17 17 17 17 17 17 16 16 16 16 17 16 15 16 19 20 20 20 20 21
8 10 11 12 12 13 13 13 12 13 13 12 12 13 13 13 14 14 15 16 16 16 17 17 16 16 16 16 16 15 15 15 17 16 16 16 16 18 19 20 20 20 20
7 10 11 12 13 13 13 12 13 13 13 12 12 13 13 13 14 14 15 15 16 16 16 16 16 16 16 15 15 14 15 15 15 16 16 15 15 17 18 19 19 19 19
7 9 11 12 13 13 13 13 13 12 12 12 13 13 13 13 14 14 14 14 15 15 15 15 15 15 15 14 14 14 15 16 16 15 15 15 15 16 17 17 17 18 18
7 8 10 11 13 13 13 13 13 12 12 12 13 13 13 13 14 14 14 13 14 14 15 14 15 15 14 14 13 13 14 14 14 15 14 14 15 16 16 16 16 17 17
7 7 8 9 11 13 12 12 12 13 13 13 13 13 13 13 13 13 13 13 13 14 14 14 14 14 14 13 13 13 14 15 14 13 13 12 14 15 15 15 15 16 16
7 6 6 7 9 10 11 12 12 13 13 13 12 13 13 13 13 13 12 12 12 13 14 14 14 13 13 12 12 12 12 12 13 13 11 12 13 14 14 14 14 14 15
5 5 5 5 7 9 10 11 12 12 13 12 12 12 11 11 11 11 12 12 12 13 13 13 13 13 12 11 11 11 11 11 13 12 11 12 12 13 13 13 13 13 14
4 4 4 4 5 7 8 9 9 9 9 9 9 9 9 10 11 11 12 12 12 12 11 11 11 10 9 8 9 9 9 11 12 11 10 12 11 12 12 12 12 12 12
4 3 3 4 5 6 6 7 7 7 7 7 8 8 9 10 9 9 8 9 9 9 8 9 8 8 8 8 8 8 9 10 10 10 10 11 11 11 11 11 12 12 11
3 3 3 4 4 5 6 6 6 6 6 6 7 8 8 6 6 6 6 7 6 6 7 7 7 8 8 9 9 9 9 9 10 9 9 10 10 10 10 10 11 11 11
3 3 2 3 3 4 5 5 5 5 6 7 6 7 7 6 5 5 6 6 6 7 6 6 6 7 7 8 8 8 8 10 10 9 8 9 9 9 9 9 9 10 10
3 3 2 2 3 4 3 4 4 5 7 7 6 7 7 7 6 5 5 5 6 6 6 6 6 6 6 7 7 8 8 9 9 9 8 7 8 9 8 8 8 9 9
3 3 2 1 2 3 3 4 5 6 7 6 6 7 7 7 7 6 5 4 5 7 7 6 6 7 6 6 6 7 7 7 7 8 7 7 7 8 8 7 7 8 8
3 3 2 2 1 2 3 4 4 6 7 6 7 7 7 7 7 6 4 4 6 7 6 5 4 4 4 3 3 4 5 6 7 7 6 6 7 6 6 6 6 6 7
3 3 3 2 2 2 2 4 5 6 6 7 7 7 7 7 7 6 5 5 6 5 5 4 3 3 4 4 3 3 4 4 4 5 5 6 7 7 6 6 6 6 6
3 3 2 2 2 2 2 3 3 4 4 5 6 7 7 6 7 7 6 5 6 4 3 4 3 3 3 4 4 4 2 3 3 4 4 5 6 6 5 5 5 5 5
3 3 3 2 2 2 2 3 3 3 3 3 4 7 7 6 7 7 5 5 4 3 3 4 4 4 3 3 3 2 2 2 2 3 3 4 4 4 5 5 5 4 4
3 3 3 3 2 1 1 2 2 3 2 3 4 5 7 6 7 6 5 4 4 4 4 4 4 3 2 2 3 3 1 0 1 1 1 2 3 4 3 3 4 4 4
4 4 3 3 2 1 1 2 3 2 3 2 2 2 4 6 6 6 6 5 5 4 4 4 4 4 3 2 2 3 3 3 1 0 1 1 2 2 2 2 2 3 3
4 4 3 3 3 2 2 3 4 4 3 3 3 2 3 6 6 6 6 6 5 4 4 4 3 3 4 4 2 1 1 3 3 2 1 0 0 1 1 1 1 2 3
5 4 4 4 3 3 2 3 4 3 3 3 3 3 3 4 5 6 6 6 5 5 5 4 3 3 3 3 3 2 2 1 2 3 3 1 1 1 1 2 2 3 4
5 5 4 4 4 3 3 3 3 3 3 3 3 4 3 3 3 5 5 5 5 5 5 5 5 4 4 3 3 3 3 4 3 3 3 3 2 2 1 2 3 3 4
Wind_Direction
117 122 127 118 115 110 108 110 109 106 103 101 99 96 93 92 90 88 87 84 82 81 82 82 83 83 83 82 82 82 82 80 79 77 75 75 76 77 76 76 75 75 77
122 123 126 122 119 114 111 108 106 103 102 100 100 98 95 94 92 90 89 86 84 82 82 82 84 86 86 84 84 84 83 82 81 79 75 72 75 77 76 74 75 78 76
118 123 125 122 120 118 114 109 106 103 99 100 101 99 97 97 95 92 89 88 86 84 83 83 85 88 88 86 85 85 84 82 82 79 76 74 75 77 77 76 77 78 77
115 123 126 124 122 121 119 114 108 105 101 100 99 98 98 97 96 93 90 89 87 85 84 84 85 88 88 86 85 83 82 79 81 79 75 74 75 78 77 77 78 78 77
110 121 123 125 126 123 120 116 112 108 103 101 100 98 97 98 97 95 93 91 88 87 87 86 86 87 87 86 84 80 77 77 78 76 74 73 76 79 78 77 77 77 77
111 115 121 127 128 126 121 116 115 111 106 103 101 100 98 97 98 97 95 93 91 90 89 88 88 88 87 84 81 77 75 75 75 74 74 75 79 82 80 78 77 78 78
109 112 125 126 128 128 125 121 116 112 109 105 103 103 101 98 97 98 97 96 96 94 92 91 89 88 87 85 80 75 74 76 75 74 73 75 79 83 83 81 79 77 77
104 107 122 128 129 126 124 122 118 115 112 109 105 103 101 99 98 98 98 97 96 96 96 94 92 90 87 84 78 72 73 76 78 78 73 76 81 83 84 82 80 78 77
95 103 110 120 129 128 124 121 119 116 113 110 107 103 101 99 97 98 98 97 98 98 98 97 94 91 88 84 77 71 70 74 74 80 80 79 83 84 84 83 82 81 80
88 93 104 112 118 119 121 120 115 115 111 107 106 104 101 99 97 97 97 98 98 99 99 98 96 92 88 82 75 70 67 70 74 76 79 84 86 86 85 85 84 83 82
93 91 95 100 108 115 117 116 111 111 110 108 107 106 100 96 93 93 96 95 98 102 102 101 99 95 87 79 75 70 66 71 76 75 79 87 88 88 86 85 86 84 84
109 95 86 91 97 105 114 113 111 112 112 107 107 104 96 91 92 95 94 96 98 104 105 103 98 95 86 78 74 70 69 72 76 77 82 89 90 90 89 88 87 88 87
128 109 94 93 104 104 111 117 111 113 113 112 109 103 98 98 100 100 98 96 100 103 101 102 96 86 80 77 74 70 69 73 78 78 81 91 93 94 93 92 90 89 89
113 108 98 91 104 108 114 116 116 113 108 106 108 109 103 101 100 100 101 104 100 99 96 93 89 86 80 78 78 74 72 75 78 79 80 91 93 94 95 95 94 92 89
112 97 102 97 109 111 111 119 118 115 113 114 110 105 106 104 100 99 97 97 96 98 95 93 91 85 79 74 73 73 74 77 81 80 77 81 89 92 97 100 101 98 94
123 105 80 96 118 117 115 121 123 122 121 119 114 108 104 105 103 101 98 96 95 96 93 95 95 89 83 78 72 69 69 76 83 82 77 74 84 90 95 98 104 105 101
142 120 104 96 104 118 124 122 125 124 123 120 122 117 110 108 108 107 106 99 103 110 105 97 96 95 90 80 75 71 68 73 84 85 82 78 82 86 88 94 101 105 106
134 133 127 119 93 109 119 119 119 125 123 119 121 120 117 113 112 112 109 107 113 114 110 109 108 107 102 95 84 73 70 71 78 83 84 87 87 85 85 90 94 98 102
125 132 137 125 107 108 114 114 120 120 122 124 124 124 123 124 122 119 115 113 117 117 117 118 107 116 115 104 95 76 67 64 69 84 85 84 88 89 89 90 93 95 95
127 127 127 116 107 107 124 113 114 109 110 121 125 128 129 133 131 125 127 128 125 128 129 123 122 107 117 117 98 78 63 69 68 76 83 84 89 93 95 101 103 101 94
138 139 138 125 123 121 148 147 150 147 137 124 129 137 140 142 139 136 134 133 132 139 143 138 133 123 123 121 104 88 47 59 74 60 74 91 89 91 92 99 104 110 109
159 150 146 146 149 136 159 165 161 150 149 142 135 139 148 150 149 146 140 147 142 140 149 155 142 140 148 151 140 140 134 21 5 47 75 86 96 92 89 98 109 110 112
165 163 172 167 155 152 152 134 133 128 123 126 142 159 156 158 157 156 157 153 151 156 165 173 164 154 167 189 159 154 161 190 174 229 154 107 100 94 102 106 121 129 128
171 160 166 164 156 158 153 153 148 166 168 177 178 179 169 162 162 161 163 162 164 166 170 182 172 172 167 184 191 175 152 144 159 179 241 211 133 143 142 138 150 163 154
163 161 168 160 162 160 170 164 159 171 172 161 161 167 171 163 161 162 164 165 169 169 172 177 176 190 188 190 184 173 157 140 156 172 198 217 259 240 185 169 178 184 180
164 162 168 166 173 168 173 164 159 166 166 158 166 175 178 175 167 166 168 168 171 170 176 181 182 193 201 205 202 183 176 173 184 177 187 197 217 242 231 193 184 187 187
Height
1516 1517 1519 1521 1523 1525 1526 1528 1529 1530 1531 1532 1533 1534 1534 1535 1536 1536 1537 1537 1538 1538 1539 1539 1540 1541 1541 1542 1543 1544 1545 1546 1546 1547 1547 1548 1548 1549 1550 1550 1550 1551 1551
1515 1517 1520 1521 1523 1525 1527 1528 1530 1531 1532 1533 1534 1535 1536 1537 1537 1538 1538 1539 1540 1540 1541 1541 1542 1542 1543 1544 1545 1546 1547 1548 1549 1550 1550 1551 1551 1552 1552 1553 1553 1553 1554
1515 1517 1520 1522 1524 1526 1527 1529 1530 1532 1533 1534 1535 1536 1537 1538 1538 1539 1540 1540 1541 1542 1542 1543 1543 1544 1546 1547 1548 1549 1550 1551 1551 1552 1552 1553 1554 1554 1555 1555 1556 1556 1556
1515 1517 1520 1522 1524 1526 1528 1529 1531 1532 1534 1535 1536 1537 1538 1539 1540 1541 1541 1542 1543 1543 1544 1544 1545 1546 1547 1548 1550 1551 1552 1553 1553 1553 1554 1555 1556 1556 1557 1557 1558 1558 1559
1515 1518 1520 1522 1524 1526 1528 1530 1531 1533 1534 1535 1537 1538 1539 1540 1541 1541 1542 1543 1544 1545 1545 1546 1547 1548 1549 1550 1551 1552 1554 1554 1555 1555 1556 1557 1558 1559 1559 1560 1560 1561 1561
1515 1517 1520 1522 1524 1526 1528 1530 1532 1533 1534 1536 1537 1539 1540 1540 1541 1542 1543 1544 1545 1546 1547 1548 1548 1549 1550 1552 1553 1554 1555 1556 1556 1557 1557 1558 1559 1560 1561 1562 1562 1563 1563
1515 1517 1519 1522 1524 1526 1528 1530 1532 1533 1535 1536 1537 1539 1540 1541 1542 1543 1544 1545 1546 1547 1548 1549 1550 1551 1552 1553 1554 1555 1556 1557 1557 1558 1559 1560 1561 1562 1563 1563 1564 1565 1565
1515 1516 1519 1522 1524 1526 1528 1530 1532 1533 1535 1536 1538 1539 1540 1542 1543 1543 1545 1546 1547 1548 1549 1550 1550 1552 1553 1554 1556 1556 1557 1558 1558 1559 1560 1561 1563 1563 1564 1565 1565 1566 1566
1515 1516 1518 1521 1523 1525 1527 1529 1531 1533 1535 1536 1538 1539 1540 1542 1543 1544 1545 1546 1547 1548 1549 1550 1552 1553 1554 1555 1556 1557 1558 1559 1559 1560 1561 1562 1564 1565 1565 1566 1566 1567 1567
1514 1516 1518 1520 1522 1524 1526 1529 1531 1533 1534 1536 1537 1539 1540 1541 1543 1544 1546 1547 1548 1549 1550 1551 1552 1554 1555 1556 1557 1558 1559 1559 1560 1561 1562 1563 1565 1565 1566 1567 1567 1568 1568
1514 1516 1517 1519 1521 1523 1525 1528 1530 1532 1534 1536 1537 1538 1540 1541 1543 1544 1545 1547 1548 1549 1550 1551 1553 1554 1555 1556 1557 1558 1559 1560 1561 1562 1563 1564 1565 1566 1567 1567 1568 1568 1569
1512 1514 1516 1518 1520 1522 1524 1526 1528 1531 1533 1535 1536 1538 1539 1541 1542 1544 1545 1546 1548 1549 1550 1552 1553 1554 1555 1556 1558 1559 1560 1561 1561 1562 1564 1565 1566 1566 1567 1568 1568 1569 1569
1511 1513 1515 1517 1519 1520 1522 1524 1527 1529 1531 1534 1535 1537 1538 1540 1541 1543 1544 1546 1547 1549 1550 1551 1553 1554 1555 1556 1558 1559 1560 1561 1561 1562 1564 1565 1566 1567 1567 1568 1568 1569 1570
1510 1511 1513 1515 1517 1519 1521 1523 1525 1528 1530 1532 1534 1536 1537 1539 1540 1542 1543 1545 1546 1548 1549 1550 1552 1553 1555 1556 1557 1558 1559 1560 1561 1562 1563 1565 1566 1567 1567 1568 1568 1569 1570
1508 1509 1511 1513 1515 1517 1519 1521 1523 1526 1528 1530 1532 1534 1535 1537 1539 1540 1542 1544 1545 1547 1548 1550 1551 1553 1554 1555 1557 1558 1559 1560 1561 1562 1563 1564 1565 1566 1567 1568 1568 1569 1570
1506 1507 1509 1511 1513 1515 1517 1519 1521 1523 1525 1528 1530 1532 1534 1535 1537 1539 1541 1542 1544 1545 1547 1548 1550 1552 1553 1554 1556 1557 1558 1559 1561 1562 1563 1564 1565 1566 1567 1568 1568 1569 1570
1504 1505 1507 1509 1511 1513 1515 1517 1519 1521 1523 1525 1527 1529 1532 1533 1535 1537 1539 1540 1542 1544 1545 1547 1548 1550 1552 1553 1554 1556 1558 1559 1560 1561 1562 1564 1565 1566 1567 1568 1568 1569 1569
1501 1503 1505 1507 1508 1510 1512 1514 1516 1518 1520 1523 1525 1527 1529 1531 1533 1535 1537 1538 1540 1541 1543 1545 1546 1548 1550 1552 1553 1555 1556 1558 1559 1560 1562 1563 1564 1565 1566 1567 1568 1568 1569
1499 1500 1502 1504 1505 1507 1509 1511 1514 1515 1517 1520 1522 1524 1526 1528 1530 1532 1534 1536 1538 1539 1540 1542 1544 1546 1548 1550 1552 1553 1555 1556 1558 1559 1560 1562 1563 1564 1565 1566 1567 1567 1568
1496 1498 1499 1501 1503 1505 1506 1508 1511 1513 1514 1517 1519 1521 1523 1525 1527 1529 1532 1533 1535 1537 1538 1540 1542 1544 1546 1548 1549 1551 1553 1555 1556 1557 1559 1560 1562 1563 1564 1565 1565 1566 1567
1493 1495 1496 1498 1500 1501 1503 1504 1507 1509 1511 1514 1516 1518 1520 1522 1524 1526 1528 1530 1532 1534 1536 1538 1540 1541 1543 1545 1547 1549 1551 1553 1554 1555 1557 1558 1560 1561 1562 1563 1564 1565 1565
1490 1491 1492 1494 1496 1498 1500 1502 1504 1506 1508 1510 1512 1514 1517 1519 1521 1522 1525 1527 1529 1531 1533 1535 1536 1538 1540 1542 1544 1546 1548 1551 1552 1553 1554 1556 1557 1559 1560 1561 1562 1563 1563
1486 1488 1489 1491 1493 1495 1496 1498 1500 1503 1505 1507 1508 1510 1513 1515 1517 1519 1521 1524 1526 1528 1530 1532 1533 1535 1537 1539 1541 1544 1545 1546 1548 1550 1551 1553 1554 1556 1557 1558 1559 1560 1561
1483 1485 1487 1488 1489 1491 1493 1494 1496 1497 1499 1502 1504 1506 1509 1511 1513 1516 1518 1520 1522 1524 1526 1528 1530 1532 1534 1535 1537 1540 1542 1543 1545 1546 1548 1549 1551 1552 1554 1555 1556 1557 1558
1481 1482 1484 1485 1486 1488 1489 1490 1492 1494 1496 1498 1501 1503 1505 1507 1509 1511 1513 1516 1518 1520 1522 1524 1526 1528 1530 1532 1533 1535 1538 1540 1541 1542 1543 1545 1547 1549 1550 1552 1553 1554 1555
1478 1479 1480 1481 1483 1485 1485 1487 1488 1490 1492 1494 1496 1498 1500 1502 1504 1507 1509 1511 1513 1515 1518 1520 1522 1525 1527 1528 1530 1531 1533 1535 1537 1538 1539 1541 1542 1544 1546 1547 1549 1550 1551